Location: *
(46.1866°S, 178.5290°W)
Time: 13:54:35
(UTC+00:00)

Cosmos 1461 - Pass Details

Date: 19 May 2021
Orbit: 510 x 653 km, 65.0° (Epoch: 21 June)

Event Time Altitude Azimuth Distance (km) Brightness Sun altitude
Rises 05:30:51 0° 218° (SW) 2,799 6.7 -10.9°
Reaches altitude 10° 05:33:03 10° 220° (SW) 1,918 5.9 -11.2°
Maximum altitude 05:37:22 69° 302° (WNW) 648 3.4 -11.9°
Drops below altitude 10° 05:41:50 10° 26° (NNE) 1,984 5.6 -12.7°
Sets 05:44:08 0° 28° (NNE) 2,904 6.4 -13.1°
